Flag for Germany Weather past 2 weeks in Backnang, Baden-Württemberg, Germany

Now
55 °F

Overcast.


Feels Like: 55 °F
Forecast: 46 / 70 °F
Wind: 3 mph from Southwest

Location: Oehringen

Current Time: Jul 29, 2015 at 4:51:07 AM

Latest Report: Jul 29, 2015 at 4:00 AM


Visibility: 22 mi

Pressure: 29.90 "Hg

Humidity: 86%

Dew point: 51 °F

Location of BacknangLocation

Historic Weather in Backnang — Graph

°F

Backnang temperature yesterday

Maximum temperature yesterday: 72 °F (at 4:00 PM)
Minimum temperature yesterday: 63 °F (at 9:00 AM)
Average temperature yesterday: 66 °F

Past Weeks' High & Low Weather Summary

 TemperatureHumidityPressure
High95 °F (Jul 17, 7:00 PM)96% (Jul 14, 3:00 AM)30.14 "Hg (Jul 14, 3:00 AM)
Low50 °F (Jul 26, 7:00 AM)19% (Jul 17, 6:00 PM)29.65 "Hg (Jul 24, 9:00 PM)
Average73 °F58%29.93 "Hg
* Reported Jul 14 3:00 AM — Jul 29 3:00 AM, Backnang, Weather by CustomWeather, © 2015

Note: Actual official high and low records may vary slightly from our data, if they occured in-between our weather recording intervals... More about our weather records

Advertising

Backnang weather history for previous 24 hours

 ConditionsComfort  
Time TempWeatherWind HumidityBarometerVisibility
3:00 AM
Wed, Jul 29
55 °FOvercast.2 mph87%29.90 "Hg22 mi
2:00 AM55 °FLight rain. Overcast.2 mph89%29.91 "Hg19 mi
1:00 AM56 °FLight rain. Overcast.3 mph82%29.92 "Hg6 mi
11:00 PM
Tue, Jul 28
64 °FLight rain. Overcast.6 mph51%29.87 "Hg28 mi
10:00 PM64 °FOvercast.2 mph50%29.85 "Hg31 mi
9:00 PM65 °FOvercast.5 mph47%29.84 "Hg28 mi
8:00 PM66 °FOvercast.5 mph44%29.82 "Hg37 mi
7:00 PM68 °FOvercast.8 mph41%29.80 "Hg34 mi
6:00 PM69 °FOvercast.8 mph42%29.80 "Hg31 mi
5:00 PM70 °FOvercast.8 mph41%29.78 "Hg25 mi
4:00 PM72 °FPartly sunny.9 mph40%29.79 "Hg34 mi
3:00 PM70 °FPartly sunny.9 mph42%29.80 "Hg22 mi
2:00 PM67 °FPartly sunny.10 mph49%29.82 "Hg19 mi
1:00 PM65 °FOvercast.8 mph53%29.83 "Hg34 mi
12:00 PM65 °FOvercast.7 mph55%29.82 "Hg31 mi
11:00 AM65 °FOvercast.8 mph54%29.82 "Hg40 mi
10:00 AM64 °FOvercast.8 mph57%29.82 "Hg31 mi
9:00 AM63 °FOvercast.9 mph58%29.81 "Hg25 mi
8:00 AM64 °FOvercast.8 mph59%29.79 "Hg37 mi
7:00 AM64 °FOvercast.8 mph58%29.78 "Hg43 mi
6:00 AM64 °FOvercast.7 mph56%29.76 "Hg43 mi
5:00 AM66 °FOvercast.6 mph55%29.75 "Hg43 mi
4:00 AM66 °FOvercast.6 mph53%29.75 "Hg43 mi
Weather by CustomWeather, © 2015

See weather overviewHow to use our weather pages